Weather History for El Centro, CA

Change the Weather History Date:

Thursday, January 24, 2013

  Actual Average Record
Temperature  
Mean Temperature 66 °F -  
Max Temperature 73 °F 69 °F 81 °F (2003)
Min Temperature 59 °F 46 °F 34 °F (2007)
Cooling Degree Days 1    
Growing Degree Days 16 (Base 50)    
Moisture  
Dew Point 42 °F    
Average Humidity 46    
Maximum Humidity 56    
Minimum Humidity 30    
Precipitation  
Precipitation 0.00 in - - ()
Sea Level Pressure  
Sea Level Pressure 30.17 in    
Wind  
Wind Speed 3 mph (NE)    
Max Wind Speed 9 mph    
Max Gust Speed -    
Visibility 10 miles    
Events      
Averages and records for this station are not official NWS values.
T = Trace of Precipitation, MM = Missing Value Source: NWS Daily Summary

Daily Weather History Graph

Daily Weather History Graph

Search for Another Location

Airport:

Trip Planner

Search our weather history database for the weather conditions in past years. The results will help you decide how hot, cold, wet, or windy it might be!

Date:

Astronomy

Jan. 24, 2013 Rise Set
Actual Time 6:42 AM PST 5:07 PM PST
Civil Twilight 6:15 AM PST 5:34 PM PST
Nautical Twilight 5:45 AM PST 6:04 PM PST
Astronomical Twilight 5:16 AM PST 6:33 PM PST
Moon 3:15 PM PST (1/24) 4:40 AM PST (1/24)
Length of Visible Light 11h 18m
Length of Day
10h 25m
Waxing Gibbous, 95% of the Moon is Illuminated
Jan 24
Waxing Gibbous
Jan 26
Full
Feb 3
Last Quarter
Feb 9
New
Feb 17
First Quarter

Hourly Weather History & Observations

Time (PST) Temp. Dew Point Humidity Pressure Visibility Wind Dir Wind Speed Gust Speed Precip Events Conditions
12:56 AM 61.0 °F 36.0 °F 39% 30.12 in 10.0 mi Calm Calm - N/A   Overcast
1:56 AM 60.1 °F 37.0 °F 42% 30.13 in 10.0 mi South 4.6 mph - N/A   Mostly Cloudy
2:56 AM 59.0 °F 37.9 °F 46% 30.12 in 10.0 mi Calm Calm - N/A   Overcast
3:56 AM 59.0 °F 41.0 °F 51% 30.09 in 10.0 mi Calm Calm - N/A   Overcast
4:56 AM 59.0 °F 42.1 °F 53% 30.11 in 10.0 mi ENE 3.5 mph - 0.00 in   Overcast
5:56 AM 59.0 °F 39.9 °F 49% 30.16 in 10.0 mi SSE 5.8 mph - N/A   Overcast
6:56 AM 60.1 °F 43.0 °F 53% 30.14 in 10.0 mi East 9.2 mph - N/A   Overcast
7:56 AM 60.1 °F 44.1 °F 55% 30.17 in 10.0 mi East 9.2 mph - N/A   Overcast
8:56 AM 61.0 °F 44.1 °F 54% 30.20 in 10.0 mi NNW 5.8 mph - N/A   Overcast
9:56 AM 62.1 °F 44.1 °F 52% 30.22 in 10.0 mi NNE 4.6 mph - N/A   Overcast
10:56 AM 64.9 °F 43.0 °F 45% 30.22 in 10.0 mi ENE 5.8 mph - N/A   Mostly Cloudy
11:56 AM 71.1 °F 39.0 °F 31% 30.19 in 10.0 mi Calm Calm - N/A   Mostly Cloudy
12:56 PM 73.0 °F 39.9 °F 30% 30.18 in 10.0 mi East 6.9 mph - N/A   Mostly Cloudy
1:56 PM 73.0 °F 43.0 °F 34% 30.16 in 10.0 mi NE 8.1 mph - N/A   Mostly Cloudy
2:56 PM 72.0 °F 42.1 °F 34% 30.15 in 10.0 mi Calm Calm - N/A   Mostly Cloudy
3:56 PM 73.0 °F 43.0 °F 34% 30.16 in 10.0 mi NNW 4.6 mph - N/A   Mostly Cloudy
4:56 PM 69.1 °F 41.0 °F 36% 30.17 in 10.0 mi NW 5.8 mph - N/A   Mostly Cloudy
5:25 PM - - N/A% - - North - - N/A   Unknown
5:56 PM 62.1 °F 46.0 °F 56% 30.19 in 10.0 mi NE 4.6 mph - N/A   Mostly Cloudy
6:56 PM 61.0 °F 44.1 °F 54% 30.19 in 10.0 mi NNE 4.6 mph - N/A   Mostly Cloudy
7:56 PM 61.0 °F 42.1 °F 50% 30.20 in 10.0 mi North 3.5 mph - N/A   Overcast
8:55 PM - - N/A% - - North - - N/A   Unknown
8:56 PM 60.1 °F 42.1 °F 51% 30.21 in 10.0 mi Calm Calm - N/A   Overcast
9:56 PM 60.1 °F 43.0 °F 53% 30.21 in 10.0 mi Calm Calm - N/A   Overcast
10:56 PM 59.0 °F 41.0 °F 51% 30.20 in 10.0 mi Calm Calm - N/A   Overcast
11:56 PM 59.0 °F 41.0 °F 51% 30.20 in 10.0 mi Calm Calm - N/A   Partly Cloudy